Miscellaneous Local Product
Issued by NWS North Platte, NE

Home | Current Version | Previous Version | Text Only | Print | Product List | Glossary On
Versions: 1 2 3 4 5 6 7 8 9 10 11 12 13 14 15 16 17 18 19 20 21 22 23 24 25 26 27 28 29 30 31 32 33 34 35 36 37 38 39 40 41 42 43 44 45 46 47 48 49 50
535
AXUS43 KLBF 251210
MISLBF


WESTERN AND NORTH CENTRAL NEBRASKA HOURLY WEATHER ROUNDUP
NATIONAL WEATHER SERVICE NORTH PLATTE NE
700 AM CDT THU MAY 25 2017

NOTE: "FAIR" INDICATES FEW OR NO CLOUDS BELOW 12,000 FEET WITH NO
SIGNIFICANT WEATHER AND/OR OBSTRUCTIONS TO VISIBILITY.

NOTE: STATIONS NOT REPORTING VARIABLES SUCH AS SKY/WEATHER OR
PRESSURE ARE PROVIDED BY RAWS AND APRS NETWORKS AND ARE NOT UNDER
NATIONAL WEATHER SERVICE QUALITY CONTROL.

...OBSERVATIONS IN AND NEAR THE EASTERN PANHANDLE OF NEBRASKA...

CITY           SKY/WX    TMP DP  RH WIND       PRES   REMARKS
PINE RIDGE     CLOUDY    52  51  97 S5        29.50R
GORDON         FAIR      54  49  86 W6        29.51R
CHADRON        CLOUDY    54  47  77 CALM      29.51R
ALLIANCE       MOCLDY    50  47  89 NW5       29.52R
SIDNEY         CLOUDY    57  45  64 NW16      29.55R
CRESCENT LAKE    N/A     55  49  79 N9G17       N/A
$$

...OBSERVATIONS IN NORTHERN NEBRASKA AND FAR SOUTHERN SOUTH DAKOTA...

CITY           SKY/WX    TMP DP  RH WIND       PRES   REMARKS
WINNER         FAIR      55  45  68 S17G25    29.42S
VALENTINE      CLEAR     54  43  66 S10       29.46R
THEDFORD       PTCLDY    51  45  78 S9        29.48S
AINSWORTH      CLEAR     51  45  78 SW13G25   29.48R
O`NEILL        CLEAR     55  43  63 S20       29.52R
ORD            CLEAR     52  43  71 S12       29.53S
BROKEN BOW     CLEAR     50  45  83 S10       29.51S
VALENTINE NWR    N/A     50  43  78 S13G20      N/A
HALSEY           N/A     49  43  79 S10         N/A
BUTTE            N/A     54  45  71 S20G29      N/A
CHAMBERS         N/A     53  45  74 S3          N/A
EWING            N/A     53  44  73 S10G20      N/A
$$

...OBSERVATIONS IN SOUTHWEST NEBRASKA AND FAR NORTHEAST COLORADO...

CITY           SKY/WX    TMP DP  RH WIND       PRES   REMARKS
WRAY           FAIR      55  46  71 SW13      29.49R
IMPERIAL       CLOUDY    50  46  86 S8        29.47F
OGALLALA       PTCLDY    51  47  88 W5        29.49R
NORTH PLATTE   MOCLDY    50  45  83 SE8       29.50S
MCCOOK         PTCLDY    47  45  93 E6        29.51R
LEXINGTON      CLOUDY    51  45  78 SE13      29.53F
STAPLETON        N/A     48  44  86 CALM        N/A
GOTHENBURG       N/A     50  42  73 SE7         N/A
CALLAWAY         N/A     48  44  85 S14         N/A
$$

...OBSERVATIONS IN CENTRAL LINCOLN COUNTY AREA...

CITY           SKY/WX    TMP DP  RH WIND       PRES   REMARKS
N.P. AIRPORT   MOCLDY    50  45  83 SE8       29.50S
N.P. DOWNTOWN    N/A     50  45  84 CALM        N/A
N.P. SOUTHEAST   N/A     49  44  83 SE3G12      N/A
N.P. HILLCREST   N/A     49  45  85 SE8         N/A
$$

...SOME OBSERVATIONS FROM AROUND THE REGION...

CITY           SKY/WX    TMP DP  RH WIND       PRES   REMARKS
DENVER         MOCLDY    58  37  45 SW5       29.59F
LIMON          CLOUDY    48  46  93 N8        29.61S
ASPEN          CLOUDY    54  31  41 MISG      29.79R
LARAMIE        CLOUDY    40  38  93 W9        29.65F WCI  34
CASPER         MOCLDY    46  43  89 SE7       29.57F
CHEYENNE       CLOUDY    51  41  68 NW8       29.62S
SCOTTSBLUFF    CLOUDY    55  46  71 NW3       29.52F
GRAND ISLAND   CLEAR     52  45  77 S14       29.58F
OMAHA          MOSUNNY   53  47  79 SE10      29.65S
SIOUX FALLS    PTSUNNY   53  47  79 S13       29.61R
PIERRE         CLEAR     52  44  74 SE14      29.34S
RAPID CITY     CLOUDY    51  41  68 NW10      29.47R
BISMARCK       PTCLDY    49  46  90 SE6       29.41F
KANSAS CITY    MOSUNNY   51  49  92 SE7       29.70R
HILL CITY      CLEAR     49  45  86 SE5       29.55F
WICHITA        PTCLDY    52  46  80 SE9       29.65S
DODGE CITY     CLOUDY    52  45  77 S20       29.56F
OKLAHOMA CITY  PTCLDY    55  47  74 SE17      29.66F
DALLAS         PTCLDY    61  53  75 SE9       29.70R
AMARILLO       CLEAR     55  40  56 SW12      29.61R
$$




USA.gov is the U.S. government's official web portal to all federal, state and local government web resources and services.